contact:dominique.lefevre@mio.osupytheas.fr, maurice.libes@osupytheas.fr, didier.mallarino@osupytheas.fr
Project:EMSO http://www.emso-fr.org/EMSO-France
Depth: 2436.0 m
Title:EMSO Ligure Ouest : Data MII capteur AQUADOPP
Date,Latitude,Longitude,X_East,Y_North,Z_Up,Amplitude_X,Amplitude_Y,Amplitude_Z,Batterie,SoundSpeed,Heading,Pitch,Roll,Pressure,TIS,Speed,Direction
, degrees North, degrees East, m.s-1, m.s-1,m.s-1, 1, 1, 1, Volt, m.s-1, degree, degree, degree, dbar, degree_C, m.s-1, degree
2021-02-16T00:04:03,42.805,6.029,-0.02,0.009,0.011,108.0,108.0,105.0,13.4,1505.2,323.9,-0.8,1.8,2470.518,13.28,0.021,294.2
2021-02-16T00:07:03,42.805,6.029,-0.026,-0.002,0.011,109.0,108.0,105.0,13.4,1505.2,326.6,-0.7,1.9,2470.541,13.28,0.026,265.6
2021-02-16T00:10:03,42.805,6.029,-0.036,-0.001,0.004,107.0,107.0,104.0,13.4,1505.2,326.7,-0.7,1.8,2470.494,13.28,0.036,268.4
2021-02-16T00:13:03,42.805,6.029,-0.021,0.0,-0.019,108.0,108.0,106.0,13.3,1505.2,327.9,-0.7,1.8,2470.514,13.28,0.021,270.0
2021-02-16T00:16:03,42.805,6.029,-0.037,0.002,-0.002,109.0,107.0,105.0,13.4,1505.2,323.3,-0.7,1.9,2470.441,13.28,0.037,273.1
2021-02-16T00:19:03,42.805,6.029,-0.035,0.015,0.011,108.0,108.0,104.0,13.4,1505.2,327.0,-0.7,1.8,2470.456,13.28,0.038,293.2
2021-02-16T00:22:03,42.805,6.029,-0.028,-0.001,0.0,108.0,107.0,106.0,13.4,1505.2,327.4,-0.8,1.8,2470.446,13.28,0.028,268.0
2021-02-16T00:25:03,42.805,6.029,-0.025,-0.006,0.025,108.0,107.0,105.0,13.4,1505.2,324.8,-0.8,1.8,2470.437,13.28,0.025,256.5
2021-02-16T00:28:03,42.805,6.029,-0.017,0.003,0.015,108.0,107.0,105.0,13.4,1505.2,326.8,-0.8,1.8,2470.472,13.29,0.017,280.0
2021-02-16T00:31:03,42.805,6.029,-0.031,0.012,-0.022,108.0,107.0,105.0,13.4,1505.2,323.0,-0.8,1.8,2470.444,13.29,0.033,291.2
2021-02-16T00:34:03,42.805,6.029,-0.051,0.019,-0.008,108.0,108.0,103.0,13.4,1505.2,324.2,-0.8,1.8,2470.447,13.29,0.054,290.4
2021-02-16T00:37:03,42.805,6.029,-0.032,-0.008,0.014,108.0,106.0,104.0,13.3,1505.2,325.5,-0.8,1.8,2470.451,13.29,0.032,256.0
2021-02-16T00:40:03,42.805,6.029,-0.036,0.013,-0.009,107.0,106.0,105.0,13.4,1505.2,324.0,-0.7,1.8,2470.458,13.29,0.038,289.9
2021-02-16T00:43:03,42.805,6.029,-0.028,-0.002,-0.013,108.0,107.0,105.0,13.3,1505.2,325.9,-0.8,1.8,2470.463,13.29,0.028,265.9
2021-02-16T00:46:03,42.805,6.029,-0.065,-0.007,0.019,107.0,109.0,104.0,13.4,1505.2,325.9,-0.8,1.8,2470.43,13.29,0.065,263.9
2021-02-16T00:49:03,42.805,6.029,-0.027,-0.001,0.01,107.0,107.0,105.0,13.3,1505.2,322.8,-0.8,1.8,2470.426,13.29,0.027,267.9
2021-02-16T00:52:03,42.805,6.029,-0.036,-0.014,-0.001,109.0,108.0,105.0,13.4,1505.2,328.0,-0.8,1.8,2470.422,13.29,0.038,248.8
2021-02-16T00:55:03,42.805,6.029,0.001,0.009,-0.008,109.0,107.0,105.0,13.4,1505.2,323.2,-0.8,1.8,2470.414,13.29,0.009,6.3
2021-02-16T00:58:03,42.805,6.029,-0.018,0.005,-0.009,107.0,107.0,104.0,13.4,1505.2,323.8,-0.7,1.8,2470.452,13.29,0.018,285.5
2021-02-16T01:04:03,42.805,6.029,-0.021,0.024,0.004,106.0,106.0,105.0,13.4,1505.2,323.1,-0.7,1.8,2470.434,13.28,0.031,318.8
2021-02-16T01:07:03,42.805,6.029,-0.006,-0.008,0.014,106.0,105.0,104.0,13.4,1505.2,322.8,-0.8,1.8,2470.435,13.28,0.01,216.9
2021-02-16T01:10:03,42.805,6.029,-0.023,-0.014,0.014,105.0,105.0,103.0,13.4,1505.2,323.8,-0.8,1.8,2470.412,13.29,0.026,238.7
2021-02-16T01:13:03,42.805,6.029,-0.023,-0.013,0.017,106.0,105.0,104.0,13.4,1505.2,327.7,-0.7,1.8,2470.414,13.29,0.026,240.5
2021-02-16T01:16:03,42.805,6.029,-0.005,-0.01,0.009,106.0,104.0,104.0,13.4,1505.2,324.1,-0.8,1.8,2470.423,13.29,0.011,206.6
2021-02-16T01:19:03,42.805,6.029,0.0,-0.005,0.018,107.0,103.0,104.0,13.4,1505.2,325.5,-0.7,1.8,2470.419,13.29,0.005,180.0
2021-02-16T01:22:03,42.805,6.029,-0.011,-0.024,-0.034,105.0,106.0,103.0,13.4,1505.2,326.7,-0.8,1.8,2470.424,13.29,0.026,204.6
2021-02-16T01:25:03,42.805,6.029,-0.026,-0.019,0.016,106.0,106.0,103.0,13.4,1505.2,323.9,-0.8,1.8,2470.438,13.29,0.032,233.8
2021-02-16T01:28:03,42.805,6.029,0.001,-0.002,0.011,105.0,106.0,103.0,13.4,1505.2,326.6,-0.8,1.8,2470.427,13.29,0.002,153.4
2021-02-16T01:31:03,42.805,6.029,-0.026,-0.019,-0.008,106.0,105.0,102.0,13.4,1505.2,324.2,-0.7,1.8,2470.422,13.29,0.032,233.8
2021-02-16T01:34:03,42.805,6.029,-0.026,0.008,0.004,105.0,107.0,103.0,13.4,1505.2,325.5,-0.7,1.9,2470.422,13.29,0.027,287.1
2021-02-16T01:37:03,42.805,6.029,-0.007,0.003,0.001,105.0,105.0,104.0,13.4,1505.2,325.4,-0.7,1.8,2470.389,13.29,0.007,293.2
2021-02-16T01:40:03,42.805,6.029,-0.022,0.001,0.019,107.0,105.0,103.0,13.4,1505.2,328.5,-0.8,1.8,2470.439,13.29,0.022,272.6
2021-02-16T01:43:03,42.805,6.029,-0.024,0.024,0.04,105.0,105.0,103.0,13.4,1505.2,324.3,-0.7,1.8,2470.407,13.29,0.033,315.0
2021-02-16T01:46:03,42.805,6.029,0.004,0.006,0.0,106.0,106.0,103.0,13.4,1505.2,325.1,-0.7,1.8,2470.397,13.29,0.007,33.7
2021-02-16T01:49:03,42.805,6.029,-0.013,0.002,0.008,105.0,106.0,103.0,13.3,1505.2,324.4,-0.7,1.8,2470.397,13.29,0.013,278.7
2021-02-16T01:52:03,42.805,6.029,-0.016,0.004,0.014,107.0,105.0,104.0,13.4,1505.2,326.5,-0.7,1.8,2470.409,13.29,0.016,284.0
2021-02-16T01:55:03,42.805,6.029,-0.022,-0.007,-0.016,105.0,106.0,104.0,13.4,1505.2,326.5,-0.7,1.8,2470.376,13.29,0.023,252.4
2021-02-16T01:58:03,42.805,6.029,-0.023,-0.002,-0.012,107.0,106.0,106.0,13.3,1505.2,324.6,-0.8,1.8,2470.398,13.29,0.023,265.0
2021-02-16T02:04:03,42.805,6.029,-0.042,-0.004,0.0,106.0,106.0,105.0,13.4,1505.2,323.0,-0.8,1.8,2470.453,13.29,0.042,264.6
2021-02-16T02:07:03,42.805,6.029,-0.034,0.001,0.032,106.0,105.0,104.0,13.3,1505.2,326.0,-0.8,1.8,2470.398,13.29,0.034,271.7
2021-02-16T02:10:03,42.805,6.029,-0.009,-0.004,0.051,105.0,106.0,104.0,13.4,1505.2,325.0,-0.8,1.9,2470.43,13.29,0.009,246.0
2021-02-16T02:13:03,42.805,6.029,-0.027,0.007,-0.009,106.0,105.0,104.0,13.3,1505.2,325.5,-0.8,1.8,2470.423,13.29,0.027,284.5
2021-02-16T02:16:03,42.805,6.029,-0.016,0.02,0.023,107.0,107.0,105.0,13.3,1505.2,325.7,-0.7,1.8,2470.449,13.29,0.025,321.3
2021-02-16T02:19:03,42.805,6.029,-0.016,-0.014,0.003,105.0,105.0,104.0,13.3,1505.2,327.9,-0.7,1.8,2470.398,13.29,0.021,228.8
2021-02-16T02:22:03,42.805,6.029,-0.011,0.007,0.011,106.0,107.0,103.0,13.4,1505.2,328.6,-0.7,1.8,2470.422,13.29,0.013,302.5
2021-02-16T02:25:03,42.805,6.029,-0.017,0.008,0.028,105.0,107.0,104.0,13.4,1505.2,327.7,-0.8,1.8,2470.399,13.29,0.018,295.2
2021-02-16T02:28:03,42.805,6.029,-0.016,0.009,0.005,105.0,106.0,105.0,13.4,1505.2,328.4,-0.7,1.8,2470.357,13.29,0.018,299.4
2021-02-16T02:31:03,42.805,6.029,-0.027,-0.013,0.004,108.0,106.0,104.0,13.4,1505.2,326.4,-0.7,1.8,2470.395,13.29,0.029,244.3
2021-02-16T02:34:03,42.805,6.029,-0.041,0.0,-0.017,107.0,105.0,104.0,13.3,1505.2,328.0,-0.7,1.8,2470.353,13.29,0.041,270.0
2021-02-16T02:37:03,42.805,6.029,-0.039,-0.002,0.001,106.0,105.0,104.0,13.4,1505.2,328.0,-0.8,1.9,2470.366,13.29,0.039,267.1
2021-02-16T02:40:03,42.805,6.029,-0.028,0.015,0.013,106.0,107.0,103.0,13.4,1505.2,328.0,-0.7,1.8,2470.381,13.29,0.031,298.2
2021-02-16T02:43:03,42.805,6.029,-0.029,-0.024,0.012,107.0,106.0,104.0,13.4,1505.2,325.9,-0.7,1.8,2470.401,13.29,0.037,230.4
2021-02-16T02:46:03,42.805,6.029,-0.023,-0.002,0.001,107.0,105.0,104.0,13.4,1505.2,324.1,-0.8,1.8,2470.378,13.29,0.023,265.0
2021-02-16T02:49:03,42.805,6.029,-0.025,-0.025,0.004,105.0,105.0,104.0,13.4,1505.2,323.8,-0.8,1.8,2470.373,13.29,0.035,225.0
2021-02-16T02:52:03,42.805,6.029,-0.021,0.0,0.012,106.0,106.0,103.0,13.3,1505.2,326.3,-0.7,1.8,2470.391,13.29,0.021,270.0
2021-02-16T02:55:03,42.805,6.029,-0.04,0.007,0.018,107.0,107.0,103.0,13.3,1505.2,325.3,-0.8,1.8,2470.426,13.29,0.04,279.9
2021-02-16T02:58:03,42.805,6.029,-0.016,-0.006,0.015,105.0,106.0,104.0,13.3,1505.2,327.7,-0.7,1.8,2470.364,13.29,0.017,249.4
2021-02-16T03:04:03,42.805,6.029,-0.027,-0.005,-0.007,105.0,105.0,103.0,13.3,1505.2,323.2,-0.8,1.8,2470.387,13.28,0.027,259.5
2021-02-16T03:07:03,42.805,6.029,-0.042,0.005,0.001,107.0,104.0,104.0,13.4,1505.2,326.7,-0.8,1.8,2470.427,13.28,0.042,276.8
2021-02-16T03:10:03,42.805,6.029,-0.013,-0.002,-0.01,106.0,106.0,104.0,13.4,1505.2,325.4,-0.7,1.8,2470.371,13.28,0.013,261.3
2021-02-16T03:13:03,42.805,6.029,-0.05,0.0,-0.003,107.0,107.0,103.0,13.4,1505.2,325.6,-0.7,1.8,2470.42,13.28,0.05,270.0
2021-02-16T03:16:03,42.805,6.029,-0.036,0.023,0.022,107.0,105.0,104.0,13.3,1505.2,324.5,-0.8,1.8,2470.373,13.28,0.042,302.6
2021-02-16T03:19:03,42.805,6.029,-0.058,-0.016,-0.005,106.0,107.0,104.0,13.4,1505.2,325.2,-0.8,1.8,2470.367,13.28,0.06,254.6
2021-02-16T03:22:03,42.805,6.029,-0.018,-0.001,0.037,106.0,105.0,104.0,13.4,1505.2,327.8,-0.7,1.9,2470.4,13.28,0.018,266.8
2021-02-16T03:25:03,42.805,6.029,-0.028,-0.013,-0.037,106.0,107.0,103.0,13.3,1505.2,327.7,-0.8,1.8,2470.376,13.28,0.03,245.1
2021-02-16T03:28:03,42.805,6.029,-0.034,0.012,0.002,108.0,105.0,104.0,13.3,1505.2,326.8,-0.7,1.8,2470.404,13.28,0.036,289.4
2021-02-16T03:31:03,42.805,6.029,-0.046,0.025,-0.021,106.0,105.0,104.0,13.4,1505.2,327.5,-0.7,1.8,2470.39,13.28,0.052,298.5
2021-02-16T03:34:03,42.805,6.029,-0.028,0.005,0.001,106.0,106.0,104.0,13.4,1505.2,326.5,-0.8,1.8,2470.351,13.28,0.028,280.1
2021-02-16T03:37:03,42.805,6.029,-0.007,-0.021,-0.007,107.0,106.0,104.0,13.3,1505.2,327.9,-0.8,1.8,2470.387,13.29,0.022,198.4
2021-02-16T03:40:03,42.805,6.029,-0.049,0.019,0.013,108.0,105.0,104.0,13.4,1505.2,327.9,-0.7,1.8,2470.364,13.29,0.052,291.2
2021-02-16T03:43:03,42.805,6.029,-0.035,0.0,-0.008,108.0,106.0,103.0,13.3,1505.2,324.7,-0.7,1.8,2470.375,13.28,0.035,270.0
2021-02-16T03:46:03,42.805,6.029,-0.034,0.007,-0.007,107.0,106.0,104.0,13.3,1505.2,327.0,-0.8,1.8,2470.334,13.28,0.034,281.6
2021-02-16T03:49:03,42.805,6.029,-0.029,-0.001,0.012,107.0,106.0,103.0,13.4,1505.2,326.5,-0.8,1.8,2470.375,13.28,0.029,268.0
2021-02-16T03:52:03,42.805,6.029,-0.052,0.01,0.013,107.0,106.0,106.0,13.4,1505.2,326.6,-0.8,1.8,2470.349,13.28,0.052,280.9
2021-02-16T03:55:03,42.805,6.029,-0.033,0.005,-0.003,108.0,105.0,104.0,13.4,1505.2,326.1,-0.8,1.8,2470.379,13.28,0.033,278.6
2021-02-16T03:58:03,42.805,6.029,-0.019,0.005,-0.007,107.0,106.0,104.0,13.4,1505.2,328.1,-0.8,1.8,2470.364,13.28,0.019,284.7
2021-02-16T04:04:03,42.805,6.029,-0.033,-0.005,0.032,108.0,107.0,104.0,13.3,1505.2,327.6,-0.8,1.8,2470.39,13.28,0.033,261.4
2021-02-16T04:07:03,42.805,6.029,-0.015,0.0,0.004,106.0,106.0,105.0,13.4,1505.2,326.8,-0.7,1.8,2470.38,13.28,0.015,270.0
2021-02-16T04:10:03,42.805,6.029,-0.025,0.003,0.004,107.0,107.0,105.0,13.4,1505.2,327.5,-0.8,1.8,2470.415,13.28,0.025,276.8
2021-02-16T04:13:03,42.805,6.029,-0.022,-0.002,0.002,107.0,107.0,104.0,13.3,1505.2,323.5,-0.8,1.8,2470.373,13.28,0.022,264.8
2021-02-16T04:16:03,42.805,6.029,-0.04,0.011,-0.01,107.0,106.0,104.0,13.4,1505.2,326.8,-0.7,1.8,2470.354,13.28,0.041,285.4
2021-02-16T04:19:03,42.805,6.029,-0.033,-0.012,0.024,107.0,106.0,104.0,13.4,1505.2,323.8,-0.8,1.8,2470.375,13.28,0.035,250.0
2021-02-16T04:22:03,42.805,6.029,-0.038,0.01,0.019,106.0,106.0,104.0,13.4,1505.2,328.3,-0.8,1.8,2470.381,13.28,0.039,284.7
2021-02-16T04:25:03,42.805,6.029,-0.02,-0.005,0.015,107.0,106.0,103.0,13.3,1505.2,324.8,-0.7,1.8,2470.381,13.28,0.02,256.0
2021-02-16T04:28:03,42.805,6.029,-0.049,0.015,-0.028,108.0,107.0,104.0,13.4,1505.2,325.9,-0.8,1.9,2470.361,13.28,0.051,287.0
2021-02-16T04:31:03,42.805,6.029,-0.031,0.013,0.042,108.0,106.0,103.0,13.4,1505.2,326.2,-0.7,1.8,2470.367,13.28,0.033,292.7
2021-02-16T04:34:03,42.805,6.029,-0.038,-0.011,0.004,108.0,107.0,104.0,13.4,1505.2,327.0,-0.7,1.9,2470.363,13.28,0.039,253.9
2021-02-16T04:37:03,42.805,6.029,-0.015,0.003,0.009,108.0,108.0,104.0,13.4,1505.2,326.2,-0.7,1.8,2470.362,13.28,0.015,281.3
2021-02-16T04:40:03,42.805,6.029,-0.033,-0.015,-0.005,107.0,107.0,104.0,13.3,1505.2,326.5,-0.7,1.8,2470.351,13.28,0.036,245.6
2021-02-16T04:43:03,42.805,6.029,-0.046,0.0,0.003,107.0,106.0,104.0,13.4,1505.2,323.9,-0.7,1.8,2470.38,13.28,0.046,270.0
2021-02-16T04:46:03,42.805,6.029,-0.045,-0.006,-0.014,107.0,106.0,104.0,13.3,1505.2,326.2,-0.8,1.8,2470.401,13.28,0.045,262.4
2021-02-16T04:49:03,42.805,6.029,-0.013,0.005,0.006,107.0,106.0,103.0,13.4,1505.2,325.3,-0.7,1.9,2470.331,13.28,0.013,291.0
2021-02-16T04:52:03,42.805,6.029,-0.029,0.004,0.032,106.0,106.0,104.0,13.3,1505.2,324.6,-0.7,1.8,2470.384,13.28,0.029,277.8
2021-02-16T04:55:03,42.805,6.029,-0.007,0.004,0.035,107.0,106.0,105.0,13.4,1505.2,327.7,-0.7,1.8,2470.342,13.28,0.008,299.7
2021-02-16T04:58:03,42.805,6.029,-0.04,0.021,0.012,107.0,107.0,105.0,13.4,1505.2,326.9,-0.8,1.8,2470.389,13.28,0.045,297.7
2021-02-16T05:04:03,42.805,6.029,-0.018,-0.021,0.012,107.0,106.0,105.0,13.4,1505.2,323.1,-0.7,1.8,2470.394,13.28,0.027,220.6
2021-02-16T05:07:03,42.805,6.029,-0.02,-0.006,0.014,107.0,108.0,104.0,13.4,1505.2,324.4,-0.8,1.8,2470.362,13.28,0.02,253.3
2021-02-16T05:10:03,42.805,6.029,-0.032,-0.007,-0.003,108.0,107.0,105.0,13.4,1505.2,327.7,-0.8,1.8,2470.385,13.28,0.032,257.7
2021-02-16T05:13:03,42.805,6.029,-0.027,-0.004,0.007,106.0,106.0,104.0,13.3,1505.2,325.3,-0.8,1.8,2470.395,13.28,0.027,261.6
2021-02-16T05:16:03,42.805,6.029,-0.052,-0.007,-0.011,108.0,105.0,104.0,13.4,1505.2,327.7,-0.8,1.8,2470.377,13.28,0.052,262.3
2021-02-16T05:19:03,42.805,6.029,-0.022,-0.004,-0.005,109.0,107.0,106.0,13.3,1505.2,326.9,-0.8,1.9,2470.4,13.28,0.022,259.7
2021-02-16T05:22:03,42.805,6.029,-0.015,0.009,0.01,109.0,107.0,104.0,13.3,1505.2,327.9,-0.8,1.9,2470.373,13.28,0.017,301.0
2021-02-16T05:25:03,42.805,6.029,-0.03,-0.005,-0.004,107.0,107.0,103.0,13.3,1505.2,324.2,-0.7,1.8,2470.357,13.28,0.03,260.5
2021-02-16T05:28:03,42.805,6.029,-0.041,-0.006,0.0,108.0,107.0,104.0,13.4,1505.2,328.1,-0.7,1.9,2470.378,13.28,0.041,261.7
2021-02-16T05:31:03,42.805,6.029,-0.028,0.006,0.01,108.0,106.0,104.0,13.3,1505.2,326.3,-0.8,1.8,2470.409,13.28,0.028,282.1
2021-02-16T05:34:03,42.805,6.029,-0.017,0.002,-0.013,108.0,108.0,104.0,13.4,1505.2,328.1,-0.8,1.8,2470.369,13.28,0.017,276.7
2021-02-16T05:37:03,42.805,6.029,-0.028,-0.003,0.021,107.0,108.0,104.0,13.3,1505.2,324.8,-0.8,1.8,2470.379,13.28,0.028,263.9
2021-02-16T05:40:03,42.805,6.029,-0.012,0.019,0.016,107.0,107.0,104.0,13.3,1505.2,328.0,-0.7,1.8,2470.372,13.28,0.022,327.7
2021-02-16T05:43:03,42.805,6.029,-0.031,0.01,0.031,107.0,107.0,104.0,13.4,1505.2,326.3,-0.7,1.8,2470.382,13.28,0.032,287.9
2021-02-16T05:46:03,42.805,6.029,-0.033,-0.014,0.013,107.0,106.0,104.0,13.3,1505.2,323.5,-0.8,1.8,2470.423,13.28,0.035,247.0
2021-02-16T05:49:03,42.805,6.029,-0.047,0.01,-0.004,106.0,105.0,105.0,13.4,1505.2,324.5,-0.7,1.8,2470.372,13.28,0.048,282.0
2021-02-16T05:52:03,42.805,6.029,-0.038,-0.003,0.037,105.0,107.0,104.0,13.3,1505.2,327.2,-0.8,1.8,2470.346,13.28,0.038,265.5
2021-02-16T05:55:03,42.805,6.029,-0.056,0.004,-0.018,106.0,105.0,103.0,13.4,1505.2,326.7,-0.8,1.8,2470.357,13.28,0.056,274.1
2021-02-16T05:58:03,42.805,6.029,-0.032,-0.007,0.012,106.0,106.0,104.0,13.4,1505.2,325.8,-0.8,1.8,2470.389,13.28,0.032,257.7
2021-02-16T06:04:03,42.805,6.029,-0.036,-0.008,0.005,108.0,107.0,105.0,13.3,1505.2,326.2,-0.8,1.8,2470.429,13.28,0.036,257.5
2021-02-16T06:07:03,42.805,6.029,-0.028,0.011,0.02,109.0,107.0,106.0,13.4,1505.2,326.0,-0.8,1.8,2470.416,13.28,0.03,291.4
2021-02-16T06:10:03,42.805,6.029,-0.036,0.005,0.002,107.0,107.0,106.0,13.3,1505.2,324.0,-0.8,1.8,2470.398,13.28,0.036,277.9
2021-02-16T06:13:03,42.805,6.029,-0.047,0.011,0.015,106.0,105.0,105.0,13.3,1505.2,324.8,-0.7,1.8,2470.431,13.28,0.048,283.2
2021-02-16T06:16:03,42.805,6.029,-0.033,0.001,0.005,107.0,106.0,105.0,13.3,1505.2,327.0,-0.7,1.8,2470.441,13.28,0.033,271.7
2021-02-16T06:19:03,42.805,6.029,-0.041,0.005,0.008,106.0,106.0,104.0,13.4,1505.2,326.4,-0.8,1.8,2470.426,13.28,0.041,277.0
2021-02-16T06:22:03,42.805,6.029,-0.035,-0.006,-0.006,106.0,107.0,104.0,13.3,1505.2,325.7,-0.7,1.8,2470.377,13.28,0.035,260.3
2021-02-16T06:25:03,42.805,6.029,-0.018,-0.002,-0.013,105.0,107.0,103.0,13.4,1505.2,325.2,-0.8,1.8,2470.394,13.28,0.018,263.7
2021-02-16T06:28:03,42.805,6.029,-0.034,0.006,-0.009,108.0,106.0,104.0,13.3,1505.2,325.7,-0.8,1.8,2470.354,13.28,0.034,280.0
2021-02-16T06:31:03,42.805,6.029,-0.046,0.002,0.027,106.0,107.0,104.0,13.4,1505.2,327.9,-0.7,1.8,2470.413,13.28,0.046,272.5
2021-02-16T06:34:03,42.805,6.029,-0.045,0.013,0.015,107.0,106.0,103.0,13.3,1505.2,326.1,-0.8,1.8,2470.404,13.28,0.046,286.1
2021-02-16T06:37:03,42.805,6.029,-0.022,0.016,0.04,108.0,107.0,104.0,13.4,1505.2,324.8,-0.7,1.8,2470.42,13.28,0.027,306.0
2021-02-16T06:40:03,42.805,6.029,-0.023,-0.004,-0.018,106.0,107.0,105.0,13.4,1505.2,323.9,-0.7,1.8,2470.45,13.28,0.023,260.1
2021-02-16T06:43:03,42.805,6.029,-0.041,-0.015,0.028,106.0,105.0,104.0,13.3,1505.2,325.3,-0.7,1.8,2470.415,13.28,0.043,249.9
2021-02-16T06:46:03,42.805,6.029,-0.037,0.005,-0.009,108.0,108.0,103.0,13.3,1505.2,324.2,-0.7,1.8,2470.386,13.28,0.037,277.7
2021-02-16T06:49:03,42.805,6.029,-0.02,0.022,0.012,107.0,106.0,104.0,13.4,1505.2,326.6,-0.8,1.9,2470.439,13.28,0.029,317.7
2021-02-16T06:52:03,42.805,6.029,-0.034,0.008,0.011,108.0,105.0,104.0,13.4,1505.2,323.8,-0.8,1.8,2470.397,13.28,0.034,283.2
2021-02-16T06:55:03,42.805,6.029,-0.028,0.006,0.009,105.0,106.0,104.0,13.4,1505.2,326.7,-0.8,1.8,2470.409,13.28,0.028,282.1
2021-02-16T06:58:03,42.805,6.029,-0.029,0.008,0.001,107.0,106.0,104.0,13.3,1505.2,325.4,-0.8,1.9,2470.413,13.28,0.03,285.4
2021-02-16T07:04:03,42.805,6.029,-0.032,0.005,0.004,107.0,107.0,104.0,13.4,1505.2,323.2,-0.8,1.8,2470.447,13.28,0.032,278.9
2021-02-16T07:07:03,42.805,6.029,-0.008,0.001,0.008,107.0,107.0,104.0,13.4,1505.2,326.7,-0.7,1.8,2470.493,13.28,0.008,277.1
2021-02-16T07:10:03,42.805,6.029,-0.049,0.013,0.014,107.0,107.0,104.0,13.4,1505.2,325.1,-0.7,1.8,2470.519,13.28,0.05,284.9
2021-02-16T07:13:03,42.805,6.029,-0.037,0.037,-0.016,106.0,106.0,104.0,13.4,1505.2,325.8,-0.7,1.8,2470.459,13.28,0.052,315.0
2021-02-16T07:16:03,42.805,6.029,-0.024,-0.003,0.045,107.0,106.0,105.0,13.4,1505.2,327.5,-0.8,1.8,2470.482,13.28,0.024,262.9
2021-02-16T07:19:03,42.805,6.029,-0.033,0.001,-0.002,107.0,107.0,104.0,13.3,1505.2,323.6,-0.8,1.8,2470.468,13.28,0.033,271.7
2021-02-16T07:22:03,42.805,6.029,-0.041,-0.013,-0.025,107.0,105.0,103.0,13.4,1505.2,323.3,-0.7,1.8,2470.501,13.28,0.043,252.4
2021-02-16T07:25:03,42.805,6.029,-0.026,0.012,0.023,106.0,105.0,103.0,13.3,1505.2,325.8,-0.7,1.8,2470.473,13.28,0.028,294.8
2021-02-16T07:28:03,42.805,6.029,-0.036,0.003,0.012,106.0,105.0,102.0,13.4,1505.2,323.6,-0.8,1.8,2470.466,13.28,0.036,274.8
2021-02-16T07:31:03,42.805,6.029,-0.016,0.021,0.004,106.0,105.0,104.0,13.3,1505.2,325.5,-0.7,1.8,2470.437,13.29,0.026,322.7
2021-02-16T07:34:03,42.805,6.029,-0.047,-0.011,0.027,106.0,106.0,102.0,13.4,1505.2,322.6,-0.8,1.8,2470.505,13.29,0.048,256.8
2021-02-16T07:37:03,42.805,6.029,-0.045,-0.009,0.015,106.0,106.0,102.0,13.4,1505.2,326.0,-0.8,1.8,2470.479,13.29,0.045,258.7
2021-02-16T07:40:03,42.805,6.029,-0.039,0.012,0.001,105.0,105.0,102.0,13.3,1505.2,323.1,-0.8,1.8,2470.46,13.29,0.04,287.1
2021-02-16T07:43:03,42.805,6.029,-0.043,0.001,0.005,105.0,106.0,103.0,13.4,1505.2,323.1,-0.7,1.8,2470.511,13.29,0.043,271.3
2021-02-16T07:46:03,42.805,6.029,-0.017,0.008,-0.004,107.0,106.0,103.0,13.4,1505.2,323.2,-0.7,1.8,2470.446,13.29,0.018,295.2
2021-02-16T07:49:03,42.805,6.029,-0.043,0.013,0.0,106.0,104.0,103.0,13.4,1505.2,324.9,-0.8,1.8,2470.474,13.29,0.044,286.8
2021-02-16T07:52:03,42.805,6.029,-0.016,0.008,0.027,106.0,105.0,105.0,13.4,1505.2,324.6,-0.8,1.9,2470.476,13.29,0.017,296.6
2021-02-16T07:55:03,42.805,6.029,-0.013,0.003,0.004,106.0,105.0,103.0,13.4,1505.2,327.1,-0.7,1.8,2470.476,13.29,0.013,283.0
2021-02-16T07:58:03,42.805,6.029,-0.034,0.003,0.019,107.0,105.0,106.0,13.4,1505.2,324.2,-0.8,1.8,2470.488,13.29,0.034,275.0
2021-02-16T08:04:03,42.805,6.029,-0.027,-0.006,-0.01,106.0,106.0,104.0,13.4,1505.2,324.6,-0.8,1.8,2470.521,13.28,0.027,257.5
2021-02-16T08:07:03,42.805,6.029,-0.027,0.005,0.016,107.0,106.0,103.0,13.3,1505.2,327.1,-0.7,1.8,2470.507,13.28,0.027,280.5
2021-02-16T08:10:03,42.805,6.029,-0.022,0.014,-0.021,106.0,106.0,103.0,13.3,1505.2,326.4,-0.8,1.8,2470.537,13.28,0.026,302.5
2021-02-16T08:13:03,42.805,6.029,-0.05,0.002,-0.014,106.0,105.0,103.0,13.4,1505.2,326.7,-0.7,1.8,2470.502,13.28,0.05,272.3
2021-02-16T08:16:03,42.805,6.029,-0.028,0.004,0.016,105.0,106.0,103.0,13.3,1505.2,323.0,-0.8,1.8,2470.517,13.28,0.028,278.1
2021-02-16T08:19:03,42.805,6.029,-0.038,0.009,0.035,105.0,104.0,102.0,13.3,1505.2,325.4,-0.8,1.8,2470.545,13.29,0.039,283.3
2021-02-16T08:22:03,42.805,6.029,-0.033,0.001,0.009,105.0,105.0,102.0,13.4,1505.2,328.5,-0.8,1.8,2470.538,13.29,0.033,271.7
2021-02-16T08:25:03,42.805,6.029,-0.025,0.001,0.006,106.0,106.0,103.0,13.4,1505.2,326.7,-0.7,1.8,2470.52,13.29,0.025,272.3
2021-02-16T08:28:03,42.805,6.029,-0.027,-0.01,-0.024,107.0,106.0,103.0,13.4,1505.2,327.8,-0.8,1.8,2470.539,13.29,0.028,249.7
2021-02-16T08:31:03,42.805,6.029,-0.005,0.003,-0.007,106.0,106.0,104.0,13.3,1505.2,326.4,-0.8,1.8,2470.532,13.29,0.005,301.0
2021-02-16T08:34:03,42.805,6.029,-0.009,-0.011,0.008,107.0,106.0,104.0,13.3,1505.2,326.9,-0.8,1.8,2470.536,13.29,0.014,219.3
2021-02-16T08:37:03,42.805,6.029,-0.032,0.004,-0.001,106.0,105.0,104.0,13.3,1505.2,323.1,-0.7,1.8,2470.552,13.29,0.032,277.1
2021-02-16T08:40:03,42.805,6.029,-0.036,-0.005,-0.021,107.0,106.0,104.0,13.3,1505.2,327.2,-0.7,1.8,2470.551,13.29,0.036,262.1
2021-02-16T08:43:03,42.805,6.029,-0.017,0.0,0.011,106.0,105.0,104.0,13.4,1505.2,323.1,-0.7,1.9,2470.532,13.29,0.017,270.0
2021-02-16T08:46:03,42.805,6.029,-0.031,-0.003,-0.012,106.0,106.0,104.0,13.4,1505.2,326.5,-0.7,1.9,2470.533,13.29,0.031,264.5
2021-02-16T08:49:03,42.805,6.029,-0.032,0.009,0.013,106.0,106.0,103.0,13.4,1505.2,325.6,-0.8,1.8,2470.56,13.29,0.033,285.7
2021-02-16T08:52:03,42.805,6.029,-0.022,0.004,0.012,107.0,106.0,103.0,13.4,1505.2,328.3,-0.8,1.8,2470.568,13.29,0.022,280.3
2021-02-16T08:55:03,42.805,6.029,-0.031,-0.016,-0.004,105.0,104.0,104.0,13.4,1505.2,323.0,-0.7,1.8,2470.56,13.29,0.034,242.7
2021-02-16T08:58:03,42.805,6.029,-0.023,-0.003,0.026,105.0,105.0,103.0,13.4,1505.2,324.7,-0.7,1.8,2470.557,13.29,0.023,262.6
2021-02-16T09:04:03,42.805,6.029,-0.037,0.007,0.021,105.0,106.0,104.0,13.4,1505.2,326.0,-0.7,1.8,2470.567,13.28,0.037,280.7
2021-02-16T09:07:03,42.805,6.029,-0.042,-0.007,0.0,107.0,105.0,104.0,13.4,1505.2,326.4,-0.7,1.8,2470.576,13.28,0.042,260.5
2021-02-16T09:10:03,42.805,6.029,-0.028,-0.018,0.019,105.0,104.0,103.0,13.3,1505.2,322.3,-0.8,1.8,2470.558,13.28,0.033,237.3
2021-02-16T09:13:03,42.805,6.029,-0.032,0.006,0.011,106.0,105.0,104.0,13.4,1505.2,325.9,-0.8,1.8,2470.607,13.28,0.032,280.6
2021-02-16T09:16:03,42.805,6.029,-0.022,-0.015,-0.008,106.0,106.0,103.0,13.4,1505.2,324.5,-0.7,1.8,2470.596,13.28,0.026,235.7
2021-02-16T09:19:03,42.805,6.029,-0.037,0.01,0.0,106.0,106.0,103.0,13.4,1505.2,327.5,-0.7,1.8,2470.585,13.28,0.038,285.1
2021-02-16T09:22:03,42.805,6.029,-0.036,-0.001,0.005,107.0,106.0,104.0,13.3,1505.2,325.2,-0.8,1.8,2470.575,13.29,0.036,268.4
2021-02-16T09:25:03,42.805,6.029,-0.031,-0.001,0.0,108.0,105.0,104.0,13.4,1505.2,323.4,-0.7,1.8,2470.578,13.29,0.031,268.2
2021-02-16T09:28:03,42.805,6.029,-0.038,0.002,0.022,105.0,106.0,102.0,13.4,1505.2,322.7,-0.8,1.8,2470.554,13.29,0.038,273.0
2021-02-16T09:31:03,42.805,6.029,-0.033,-0.001,-0.006,106.0,106.0,104.0,13.4,1505.2,323.2,-0.7,1.8,2470.573,13.29,0.033,268.3
2021-02-16T09:34:03,42.805,6.029,-0.028,0.0,0.004,104.0,105.0,103.0,13.4,1505.2,326.6,-0.8,1.9,2470.555,13.29,0.028,270.0
2021-02-16T09:37:03,42.805,6.029,-0.042,0.018,0.027,105.0,106.0,104.0,13.4,1505.2,326.8,-0.7,1.8,2470.58,13.29,0.045,293.2
2021-02-16T09:40:03,42.805,6.029,-0.035,-0.001,0.003,106.0,106.0,103.0,13.3,1505.2,327.8,-0.7,1.8,2470.566,13.29,0.035,268.4
2021-02-16T09:43:03,42.805,6.029,-0.033,0.0,-0.004,107.0,106.0,104.0,13.4,1505.2,324.9,-0.8,1.8,2470.588,13.29,0.033,270.0
2021-02-16T09:46:03,42.805,6.029,-0.051,-0.014,0.021,106.0,106.0,103.0,13.4,1505.2,323.0,-0.7,1.8,2470.601,13.29,0.052,254.7
2021-02-16T09:49:03,42.805,6.029,-0.038,-0.001,-0.022,106.0,106.0,103.0,13.4,1505.2,327.0,-0.8,1.8,2470.58,13.29,0.038,268.5
2021-02-16T09:52:03,42.805,6.029,-0.035,-0.001,-0.028,106.0,105.0,103.0,13.3,1505.2,325.0,-0.8,1.8,2470.56,13.29,0.035,268.4
2021-02-16T09:55:03,42.805,6.029,-0.034,0.016,-0.014,106.0,106.0,104.0,13.3,1505.2,327.9,-0.8,1.8,2470.559,13.28,0.037,295.2